Year,Month,Day,Hour,Minute,Value (Times are PST for temperature in C)
2013,07,28,00,00,16.10
2013,07,28,00,01,16.00
2013,07,28,00,02,15.90
2013,07,28,00,03,15.90
2013,07,28,00,04,15.90
2013,07,28,00,05,15.80
2013,07,28,00,06,15.80
2013,07,28,00,07,15.80
2013,07,28,00,08,15.80
2013,07,28,00,09,15.80
2013,07,28,00,10,15.80
2013,07,28,00,11,15.80
2013,07,28,00,12,15.80
2013,07,28,00,13,15.70
2013,07,28,00,14,15.70
2013,07,28,00,15,15.70
2013,07,28,00,16,15.70
2013,07,28,00,17,15.70
2013,07,28,00,18,15.70
2013,07,28,00,19,15.70
2013,07,28,00,20,15.70
2013,07,28,00,21,15.70
2013,07,28,00,22,15.70
2013,07,28,00,23,15.70
2013,07,28,00,24,15.70
2013,07,28,00,25,15.70
2013,07,28,00,26,15.70
2013,07,28,00,27,15.70
2013,07,28,00,28,15.70
2013,07,28,00,29,15.60
2013,07,28,00,30,15.60
2013,07,28,00,31,15.60
2013,07,28,00,32,15.60
2013,07,28,00,33,15.60
2013,07,28,00,34,15.50
2013,07,28,00,35,15.50
2013,07,28,00,36,15.50
2013,07,28,00,37,15.40
2013,07,28,00,38,15.40
2013,07,28,00,39,15.40
2013,07,28,00,40,15.30
2013,07,28,00,41,15.30
2013,07,28,00,42,15.30
2013,07,28,00,43,15.30
2013,07,28,00,44,15.30
2013,07,28,00,45,15.30
2013,07,28,00,46,15.30
2013,07,28,00,47,15.20
2013,07,28,00,48,15.20
2013,07,28,00,49,15.20
2013,07,28,00,50,15.20
2013,07,28,00,51,15.20
2013,07,28,00,52,15.20
2013,07,28,00,53,15.10
2013,07,28,00,54,15.10
2013,07,28,00,55,15.10
2013,07,28,00,56,15.10
2013,07,28,00,57,15.10
2013,07,28,00,58,15.10
2013,07,28,00,59,15.00
2013,07,28,01,00,15.00
2013,07,28,01,01,15.00
2013,07,28,01,02,15.00
2013,07,28,01,03,15.00
2013,07,28,01,04,15.00
2013,07,28,01,05,14.90
2013,07,28,01,06,14.90
2013,07,28,01,07,14.90
2013,07,28,01,08,14.80
2013,07,28,01,09,14.80
2013,07,28,01,10,14.80
2013,07,28,01,11,14.80
2013,07,28,01,12,14.80
2013,07,28,01,13,14.80
2013,07,28,01,14,14.80
2013,07,28,01,15,14.70
2013,07,28,01,16,14.70
2013,07,28,01,17,14.70
2013,07,28,01,18,14.70
2013,07,28,01,19,14.70
2013,07,28,01,20,14.70
2013,07,28,01,21,14.70
2013,07,28,01,22,14.70
2013,07,28,01,23,14.70
2013,07,28,01,24,14.70
2013,07,28,01,25,14.70
2013,07,28,01,26,14.70
2013,07,28,01,27,14.70
2013,07,28,01,28,14.70
2013,07,28,01,29,14.70
2013,07,28,01,30,14.80
2013,07,28,01,31,14.80
2013,07,28,01,32,14.80
2013,07,28,01,33,14.80
2013,07,28,01,34,14.80
2013,07,28,01,35,14.80
2013,07,28,01,36,14.80
2013,07,28,01,37,14.80
2013,07,28,01,38,14.80
2013,07,28,01,39,14.80
2013,07,28,01,40,14.80
2013,07,28,01,41,14.80
2013,07,28,01,42,14.80
2013,07,28,01,43,14.80
2013,07,28,01,44,14.80
2013,07,28,01,45,14.80
2013,07,28,01,46,14.80
2013,07,28,01,47,14.80
2013,07,28,01,48,14.80
2013,07,28,01,49,14.80
2013,07,28,01,50,14.80
2013,07,28,01,51,14.80
2013,07,28,01,52,14.70
2013,07,28,01,53,14.70
2013,07,28,01,54,14.60
2013,07,28,01,55,14.60
2013,07,28,01,56,14.60
2013,07,28,01,57,14.50
2013,07,28,01,58,14.50
2013,07,28,01,59,14.50
2013,07,28,02,00,14.40
2013,07,28,02,01,14.30
2013,07,28,02,02,14.20
2013,07,28,02,03,14.20
2013,07,28,02,04,14.20
2013,07,28,02,05,14.20
2013,07,28,02,06,14.10
2013,07,28,02,07,14.10
2013,07,28,02,08,14.10
2013,07,28,02,09,14.00
2013,07,28,02,10,14.00
2013,07,28,02,11,14.00
2013,07,28,02,12,14.00
2013,07,28,02,13,14.00
2013,07,28,02,14,14.00
2013,07,28,02,15,14.00
2013,07,28,02,16,13.90
2013,07,28,02,17,13.90
2013,07,28,02,18,13.90
2013,07,28,02,19,13.90
2013,07,28,02,20,13.90
2013,07,28,02,21,13.90
2013,07,28,02,22,13.80
2013,07,28,02,23,13.80
2013,07,28,02,24,13.80
2013,07,28,02,25,13.70
2013,07,28,02,26,13.70
2013,07,28,02,27,13.70
2013,07,28,02,28,13.70
2013,07,28,02,29,13.70
2013,07,28,02,30,13.70
2013,07,28,02,31,13.70
2013,07,28,02,32,13.70
2013,07,28,02,33,13.70
2013,07,28,02,34,13.60
2013,07,28,02,35,13.50
2013,07,28,02,36,13.50
2013,07,28,02,37,13.40
2013,07,28,02,38,13.40
2013,07,28,02,39,13.30
2013,07,28,02,40,13.30
2013,07,28,02,41,13.30
2013,07,28,02,42,13.30
2013,07,28,02,43,13.30
2013,07,28,02,44,13.30
2013,07,28,02,45,13.30
2013,07,28,02,46,13.30
2013,07,28,02,47,13.20
2013,07,28,02,48,13.30
2013,07,28,02,49,13.30
2013,07,28,02,50,13.30
2013,07,28,02,51,13.30
2013,07,28,02,52,13.30
2013,07,28,02,53,13.30
2013,07,28,02,54,13.30
2013,07,28,02,55,13.30
2013,07,28,02,56,13.30
2013,07,28,02,57,13.30
2013,07,28,02,58,13.30
2013,07,28,02,59,13.20
2013,07,28,03,00,13.20
2013,07,28,03,01,13.20
2013,07,28,03,02,13.10
2013,07,28,03,03,13.10
2013,07,28,03,04,13.10
2013,07,28,03,05,13.10
2013,07,28,03,06,13.10
2013,07,28,03,07,13.10
2013,07,28,03,08,13.00
2013,07,28,03,09,13.00
2013,07,28,03,10,13.00
2013,07,28,03,11,13.00
2013,07,28,03,12,13.00
2013,07,28,03,13,13.00
2013,07,28,03,14,13.00
2013,07,28,03,15,12.90
2013,07,28,03,16,12.90
2013,07,28,03,17,12.80
2013,07,28,03,18,12.80
2013,07,28,03,19,12.80
2013,07,28,03,20,12.80
2013,07,28,03,21,12.80
2013,07,28,03,22,12.80
2013,07,28,03,23,12.80
2013,07,28,03,24,12.80
2013,07,28,03,25,12.80
2013,07,28,03,26,12.80
2013,07,28,03,27,12.80
2013,07,28,03,28,12.80
2013,07,28,03,29,12.70
2013,07,28,03,30,12.70
2013,07,28,03,31,12.70
2013,07,28,03,32,12.60
2013,07,28,03,33,12.60
2013,07,28,03,34,12.60
2013,07,28,03,35,12.60
2013,07,28,03,36,12.50
2013,07,28,03,37,12.50
2013,07,28,03,38,12.50
2013,07,28,03,39,12.50
2013,07,28,03,40,12.50
2013,07,28,03,41,12.40
2013,07,28,03,42,12.40
2013,07,28,03,43,12.40
2013,07,28,03,44,12.40
2013,07,28,03,45,12.40
2013,07,28,03,46,12.30
2013,07,28,03,47,12.30
2013,07,28,03,48,12.30
2013,07,28,03,49,12.30
2013,07,28,03,50,12.30
2013,07,28,03,51,12.30
2013,07,28,03,52,12.30
2013,07,28,03,53,12.30
2013,07,28,03,54,12.20
2013,07,28,03,55,12.20
2013,07,28,03,56,12.20
2013,07,28,03,57,12.30
2013,07,28,03,58,12.30
2013,07,28,03,59,12.30
2013,07,28,04,00,12.30
2013,07,28,04,01,12.30
2013,07,28,04,02,12.40
2013,07,28,04,03,12.40
2013,07,28,04,04,12.50
2013,07,28,04,05,12.60
2013,07,28,04,06,12.60
2013,07,28,04,07,12.70
2013,07,28,04,08,12.80
2013,07,28,04,09,12.80
2013,07,28,04,10,12.80
2013,07,28,04,11,12.80
2013,07,28,04,12,12.80
2013,07,28,04,13,12.80
2013,07,28,04,14,12.80
2013,07,28,04,15,12.80
2013,07,28,04,16,12.80
2013,07,28,04,17,12.80
2013,07,28,04,18,12.80
2013,07,28,04,19,12.80
2013,07,28,04,20,12.80
2013,07,28,04,21,12.80
2013,07,28,04,22,12.80
2013,07,28,04,23,12.80
2013,07,28,04,24,12.80
2013,07,28,04,25,12.80
2013,07,28,04,26,12.80
2013,07,28,04,27,12.80
2013,07,28,04,28,12.80
2013,07,28,04,29,12.80
2013,07,28,04,30,12.90
2013,07,28,04,31,12.90
2013,07,28,04,32,12.90
2013,07,28,04,33,13.00
2013,07,28,04,34,13.00
2013,07,28,04,35,13.00
2013,07,28,04,36,13.00
2013,07,28,04,37,13.00
2013,07,28,04,38,13.00
2013,07,28,04,39,13.00
2013,07,28,04,40,13.10
2013,07,28,04,41,13.10
2013,07,28,04,42,13.10
2013,07,28,04,43,13.20
2013,07,28,04,44,13.20
2013,07,28,04,45,13.30
2013,07,28,04,46,13.30
2013,07,28,04,47,13.30
2013,07,28,04,48,13.40
2013,07,28,04,49,13.50
2013,07,28,04,50,13.60
2013,07,28,04,51,13.60
2013,07,28,04,52,13.70
2013,07,28,04,53,13.80
2013,07,28,04,54,13.90
2013,07,28,04,55,14.00
2013,07,28,04,56,14.10
2013,07,28,04,57,14.20
2013,07,28,04,58,14.30
2013,07,28,04,59,14.40
2013,07,28,05,00,14.50
2013,07,28,05,01,14.60
2013,07,28,05,02,14.70
2013,07,28,05,03,14.70
2013,07,28,05,04,14.80
2013,07,28,05,05,14.80
2013,07,28,05,06,14.70
2013,07,28,05,07,14.70
2013,07,28,05,08,14.60
2013,07,28,05,09,14.60
2013,07,28,05,10,14.50
2013,07,28,05,11,14.40
2013,07,28,05,12,14.30
2013,07,28,05,13,14.20
2013,07,28,05,14,14.20
2013,07,28,05,15,14.10
2013,07,28,05,16,14.00
2013,07,28,05,17,13.90
2013,07,28,05,18,13.80
2013,07,28,05,19,13.70
2013,07,28,05,20,13.70
2013,07,28,05,21,13.60
2013,07,28,05,22,13.50
2013,07,28,05,23,13.40
2013,07,28,05,24,13.30
2013,07,28,05,25,13.20
2013,07,28,05,26,13.20
2013,07,28,05,27,13.10
2013,07,28,05,28,13.10
2013,07,28,05,29,13.00
2013,07,28,05,30,13.00
2013,07,28,05,31,13.00
2013,07,28,05,32,12.90
2013,07,28,05,33,12.90
2013,07,28,05,34,12.90
2013,07,28,05,35,12.90
2013,07,28,05,36,12.90
2013,07,28,05,37,12.80
2013,07,28,05,38,12.80
2013,07,28,05,39,12.80
2013,07,28,05,40,12.80
2013,07,28,05,41,12.80
2013,07,28,05,42,12.80
2013,07,28,05,43,12.70
2013,07,28,05,44,12.70
2013,07,28,05,45,12.70
2013,07,28,05,46,12.70
2013,07,28,05,47,12.60
2013,07,28,05,48,12.60
2013,07,28,05,49,12.60
2013,07,28,05,50,12.60
2013,07,28,05,51,12.50
2013,07,28,05,52,12.50
2013,07,28,05,53,12.50
2013,07,28,05,54,12.50
2013,07,28,05,55,12.50
2013,07,28,05,56,12.50
2013,07,28,05,57,12.50
2013,07,28,05,58,12.50
2013,07,28,05,59,12.50
2013,07,28,06,00,12.50
2013,07,28,06,01,12.50
2013,07,28,06,02,12.60
2013,07,28,06,03,12.60
2013,07,28,06,04,12.70
2013,07,28,06,05,12.70
2013,07,28,06,06,12.80
2013,07,28,06,07,12.80
2013,07,28,06,08,12.90
2013,07,28,06,09,13.00
2013,07,28,06,10,13.10
2013,07,28,06,11,13.10
2013,07,28,06,12,13.20
2013,07,28,06,13,13.20
2013,07,28,06,14,13.30
2013,07,28,06,15,13.30
2013,07,28,06,16,13.40
2013,07,28,06,17,13.40
2013,07,28,06,18,13.50
2013,07,28,06,19,13.60
2013,07,28,06,20,13.60
2013,07,28,06,21,13.70
2013,07,28,06,22,13.70
2013,07,28,06,23,13.80
2013,07,28,06,24,13.80
2013,07,28,06,25,13.90
2013,07,28,06,26,14.00
2013,07,28,06,27,14.00
2013,07,28,06,28,14.10
2013,07,28,06,29,14.20
2013,07,28,06,30,14.20
2013,07,28,06,31,14.30
2013,07,28,06,32,14.40
2013,07,28,06,33,14.50
2013,07,28,06,34,14.60
2013,07,28,06,35,14.70
2013,07,28,06,36,14.70
2013,07,28,06,37,14.80
2013,07,28,06,38,14.80
2013,07,28,06,39,14.90
2013,07,28,06,40,15.00
2013,07,28,06,41,15.00
2013,07,28,06,42,15.00
2013,07,28,06,43,15.10
2013,07,28,06,44,15.20
2013,07,28,06,45,15.20
2013,07,28,06,46,15.30
2013,07,28,06,47,15.40
2013,07,28,06,48,15.50
2013,07,28,06,49,15.50
2013,07,28,06,50,15.60
2013,07,28,06,51,15.60
2013,07,28,06,52,15.70
2013,07,28,06,53,15.70
2013,07,28,06,54,15.80
2013,07,28,06,55,15.80
2013,07,28,06,56,15.80
2013,07,28,06,57,15.80
2013,07,28,06,58,15.80
2013,07,28,06,59,15.80
2013,07,28,07,00,15.70
2013,07,28,07,01,15.70
2013,07,28,07,02,15.70
2013,07,28,07,03,15.70
2013,07,28,07,04,15.80
2013,07,28,07,05,15.80
2013,07,28,07,06,15.80
2013,07,28,07,07,15.80
2013,07,28,07,08,15.80
2013,07,28,07,09,15.80
2013,07,28,07,10,15.70
2013,07,28,07,11,15.70
2013,07,28,07,12,15.60
2013,07,28,07,13,15.60
2013,07,28,07,14,15.60
2013,07,28,07,15,15.70
2013,07,28,07,16,15.60
2013,07,28,07,17,15.60
2013,07,28,07,18,15.60
2013,07,28,07,19,15.60
2013,07,28,07,20,15.60
2013,07,28,07,21,15.60
2013,07,28,07,22,15.60
2013,07,28,07,23,15.70
2013,07,28,07,24,15.70
2013,07,28,07,25,15.70
2013,07,28,07,26,15.80
2013,07,28,07,27,15.80
2013,07,28,07,28,15.80
2013,07,28,07,29,15.80
2013,07,28,07,30,15.80
2013,07,28,07,31,15.80
2013,07,28,07,32,15.80
2013,07,28,07,33,15.90
2013,07,28,07,34,15.90
2013,07,28,07,35,15.80
2013,07,28,07,36,15.80
2013,07,28,07,37,15.80
2013,07,28,07,38,15.70
2013,07,28,07,39,15.70
2013,07,28,07,40,15.70
2013,07,28,07,41,15.60
2013,07,28,07,42,15.60
2013,07,28,07,43,15.70
2013,07,28,07,44,15.70
2013,07,28,07,45,15.70
2013,07,28,07,46,15.60
2013,07,28,07,47,15.60
2013,07,28,07,48,15.50
2013,07,28,07,49,15.50
2013,07,28,07,50,15.40
2013,07,28,07,51,15.30
2013,07,28,07,52,15.30
2013,07,28,07,53,15.30
2013,07,28,07,54,15.30
2013,07,28,07,55,15.30
2013,07,28,07,56,15.40
2013,07,28,07,57,15.50
2013,07,28,07,58,15.60
2013,07,28,07,59,15.70
2013,07,28,08,00,15.80
2013,07,28,08,01,15.80
2013,07,28,08,02,15.80
2013,07,28,08,03,15.70
2013,07,28,08,04,15.70
2013,07,28,08,05,15.70
2013,07,28,08,06,15.60
2013,07,28,08,07,15.60
2013,07,28,08,08,15.60
2013,07,28,08,09,15.70
2013,07,28,08,10,15.70
2013,07,28,08,11,15.70
2013,07,28,08,12,15.60
2013,07,28,08,13,15.60
2013,07,28,08,14,15.60
2013,07,28,08,15,15.50
2013,07,28,08,16,15.50
2013,07,28,08,17,15.40
2013,07,28,08,18,15.40
2013,07,28,08,19,15.30
2013,07,28,08,20,15.40
2013,07,28,08,21,15.40
2013,07,28,08,22,15.40
2013,07,28,08,23,15.50
2013,07,28,08,24,15.50
2013,07,28,08,25,15.60
2013,07,28,08,26,15.70
2013,07,28,08,27,15.60
2013,07,28,08,28,15.60
2013,07,28,08,29,15.70
2013,07,28,08,30,15.80
2013,07,28,08,31,15.80
2013,07,28,08,32,15.80
2013,07,28,08,33,15.70
2013,07,28,08,34,15.70
2013,07,28,08,35,15.70
2013,07,28,08,36,15.60
2013,07,28,08,37,15.60
2013,07,28,08,38,15.50
2013,07,28,08,39,15.60
2013,07,28,08,40,15.60
2013,07,28,08,41,15.70
2013,07,28,08,42,15.80
2013,07,28,08,43,15.80
2013,07,28,08,44,16.00
2013,07,28,08,45,16.10
2013,07,28,08,46,16.10
2013,07,28,08,47,16.20
2013,07,28,08,48,16.30
2013,07,28,08,49,16.30
2013,07,28,08,50,16.30
2013,07,28,08,51,16.30
2013,07,28,08,52,16.30
2013,07,28,08,53,16.30
2013,07,28,08,54,16.40
2013,07,28,08,55,16.40
2013,07,28,08,56,16.40
2013,07,28,08,57,16.40
2013,07,28,08,58,16.40
2013,07,28,08,59,16.40
2013,07,28,09,00,16.40
2013,07,28,09,01,16.40
2013,07,28,09,02,16.40
2013,07,28,09,03,16.40
2013,07,28,09,04,16.40
2013,07,28,09,05,16.40
2013,07,28,09,06,16.40
2013,07,28,09,07,16.40
2013,07,28,09,08,16.40
2013,07,28,09,09,16.40
2013,07,28,09,10,16.40
2013,07,28,09,11,16.40
2013,07,28,09,12,16.40
2013,07,28,09,13,16.50
2013,07,28,09,14,16.60
2013,07,28,09,15,16.70
2013,07,28,09,16,16.70
2013,07,28,09,17,16.80
2013,07,28,09,18,16.90
2013,07,28,09,19,16.90
2013,07,28,09,20,16.80
2013,07,28,09,21,16.80
2013,07,28,09,22,16.80
2013,07,28,09,23,16.80
2013,07,28,09,24,16.90
2013,07,28,09,25,16.90
2013,07,28,09,26,16.90
2013,07,28,09,27,16.90
2013,07,28,09,28,16.90
2013,07,28,09,29,16.90
2013,07,28,09,30,16.90
2013,07,28,09,31,17.00
2013,07,28,09,32,17.00
2013,07,28,09,33,17.20
2013,07,28,09,34,17.20
2013,07,28,09,35,17.20
2013,07,28,09,36,17.20
2013,07,28,09,37,17.10
2013,07,28,09,38,17.00
2013,07,28,09,39,16.80
2013,07,28,09,40,16.60
2013,07,28,09,41,16.50
2013,07,28,09,42,16.30
2013,07,28,09,43,16.30
2013,07,28,09,44,16.20
2013,07,28,09,45,16.10
2013,07,28,09,46,16.00
2013,07,28,09,47,15.90
2013,07,28,09,48,16.00
2013,07,28,09,49,16.10
2013,07,28,09,50,16.20
2013,07,28,09,51,16.30
2013,07,28,09,52,16.30
2013,07,28,09,53,16.40
2013,07,28,09,54,16.40
2013,07,28,09,55,16.40
2013,07,28,09,56,16.30
2013,07,28,09,57,16.30
2013,07,28,09,58,16.40
2013,07,28,09,59,16.40
2013,07,28,10,00,16.50
2013,07,28,10,01,16.60
2013,07,28,10,02,16.60
2013,07,28,10,03,16.70
2013,07,28,10,04,16.80
2013,07,28,10,05,16.90
2013,07,28,10,06,17.00
2013,07,28,10,07,17.00
2013,07,28,10,08,16.90
2013,07,28,10,09,16.80
2013,07,28,10,10,16.70
2013,07,28,10,11,16.80
2013,07,28,10,12,16.90
2013,07,28,10,13,16.90
2013,07,28,10,14,16.90
2013,07,28,10,15,17.00
2013,07,28,10,16,17.00
2013,07,28,10,17,17.00
2013,07,28,10,18,17.10
2013,07,28,10,19,17.20
2013,07,28,10,20,17.30
2013,07,28,10,21,17.20
2013,07,28,10,22,17.10
2013,07,28,10,23,17.00
2013,07,28,10,24,17.00
2013,07,28,10,25,17.10
2013,07,28,10,26,17.10
2013,07,28,10,27,17.20
2013,07,28,10,28,17.20
2013,07,28,10,29,17.30
2013,07,28,10,30,17.20
2013,07,28,10,31,17.10
2013,07,28,10,32,16.90
2013,07,28,10,33,16.60
2013,07,28,10,34,16.20
2013,07,28,10,35,15.90
2013,07,28,10,36,15.80
2013,07,28,10,37,15.70
2013,07,28,10,38,15.50
2013,07,28,10,39,15.30
2013,07,28,10,40,15.20
2013,07,28,10,41,15.00
2013,07,28,10,42,14.80
2013,07,28,10,43,14.60
2013,07,28,10,44,14.50
2013,07,28,10,45,14.40
2013,07,28,10,46,14.50
2013,07,28,10,47,14.60
2013,07,28,10,48,14.70
2013,07,28,10,49,14.70
2013,07,28,10,50,14.70
2013,07,28,10,51,14.70
2013,07,28,10,52,14.60
2013,07,28,10,53,14.50
2013,07,28,10,54,14.50
2013,07,28,10,55,14.60
2013,07,28,10,56,14.60
2013,07,28,10,57,14.70
2013,07,28,10,58,14.80
2013,07,28,10,59,14.80
2013,07,28,11,00,14.90
2013,07,28,11,01,15.00
2013,07,28,11,02,15.10
2013,07,28,11,03,15.30
2013,07,28,11,04,15.40
2013,07,28,11,05,15.40
2013,07,28,11,06,15.50
2013,07,28,11,07,15.50
2013,07,28,11,08,15.40
2013,07,28,11,09,15.30
2013,07,28,11,10,15.30
2013,07,28,11,11,15.40
2013,07,28,11,12,15.40
2013,07,28,11,13,15.30
2013,07,28,11,14,15.20
2013,07,28,11,15,15.20
2013,07,28,11,16,15.20
2013,07,28,11,17,15.20
2013,07,28,11,18,15.30
2013,07,28,11,19,15.20
2013,07,28,11,20,15.20
2013,07,28,11,21,15.30
2013,07,28,11,22,15.30
2013,07,28,11,23,15.40
2013,07,28,11,24,15.50
2013,07,28,11,25,15.50
2013,07,28,11,26,15.50
2013,07,28,11,27,15.50
2013,07,28,11,28,15.50
2013,07,28,11,29,15.40
2013,07,28,11,30,15.30
2013,07,28,11,31,15.30
2013,07,28,11,32,15.40
2013,07,28,11,33,15.40
2013,07,28,11,34,15.50
2013,07,28,11,35,15.50
2013,07,28,11,36,15.50
2013,07,28,11,37,15.40
2013,07,28,11,38,15.50
2013,07,28,11,39,15.50
2013,07,28,11,40,15.60
2013,07,28,11,41,15.70
2013,07,28,11,42,15.60
2013,07,28,11,43,15.70
2013,07,28,11,44,15.60
2013,07,28,11,45,15.60
2013,07,28,11,46,15.70
2013,07,28,11,47,15.70
2013,07,28,11,48,15.60
2013,07,28,11,49,15.60
2013,07,28,11,50,15.60
2013,07,28,11,51,15.60
2013,07,28,11,52,15.60
2013,07,28,11,53,15.60
2013,07,28,11,54,15.50
2013,07,28,11,55,15.50
2013,07,28,11,56,15.60
2013,07,28,11,57,15.60
2013,07,28,11,58,15.50
2013,07,28,11,59,15.30
2013,07,28,12,00,15.20
2013,07,28,12,01,15.20
2013,07,28,12,02,15.10
2013,07,28,12,03,15.10
2013,07,28,12,04,15.10
2013,07,28,12,05,15.10
2013,07,28,12,06,15.10
2013,07,28,12,07,15.10
2013,07,28,12,08,15.00
2013,07,28,12,09,14.90
2013,07,28,12,10,14.90
2013,07,28,12,11,15.00
2013,07,28,12,12,15.10
2013,07,28,12,13,15.30
2013,07,28,12,14,15.30
2013,07,28,12,15,15.30
2013,07,28,12,16,15.30
2013,07,28,12,17,15.30
2013,07,28,12,18,15.30
2013,07,28,12,19,15.40
2013,07,28,12,20,15.40
2013,07,28,12,21,15.30
2013,07,28,12,22,15.30
2013,07,28,12,23,15.30
2013,07,28,12,24,15.30
2013,07,28,12,25,15.30
2013,07,28,12,26,15.30
2013,07,28,12,27,15.40
2013,07,28,12,28,15.40
2013,07,28,12,29,15.50
2013,07,28,12,30,15.60
2013,07,28,12,31,15.60
2013,07,28,12,32,15.60
2013,07,28,12,33,15.50
2013,07,28,12,34,15.40
2013,07,28,12,35,15.30
2013,07,28,12,36,15.20
2013,07,28,12,37,15.10
2013,07,28,12,38,15.10
2013,07,28,12,39,15.10
2013,07,28,12,40,15.10
2013,07,28,12,41,15.10
2013,07,28,12,42,15.20
2013,07,28,12,43,15.30
2013,07,28,12,44,15.40
2013,07,28,12,45,15.50
2013,07,28,12,46,15.60
2013,07,28,12,47,15.60
2013,07,28,12,48,15.70
2013,07,28,12,49,15.80
2013,07,28,12,50,15.80
2013,07,28,12,51,15.70
2013,07,28,12,52,15.60
2013,07,28,12,53,15.50
2013,07,28,12,54,15.40
2013,07,28,12,55,15.30
2013,07,28,12,56,15.30
2013,07,28,12,57,15.40
2013,07,28,12,58,15.50
2013,07,28,12,59,15.50
2013,07,28,13,00,15.50
2013,07,28,13,01,15.50
2013,07,28,13,02,15.60
2013,07,28,13,03,15.50
2013,07,28,13,04,15.50
2013,07,28,13,05,15.60
2013,07,28,13,06,15.70
2013,07,28,13,07,15.80
2013,07,28,13,08,16.00
2013,07,28,13,09,16.10
2013,07,28,13,10,16.00
2013,07,28,13,11,15.90
2013,07,28,13,12,15.80
2013,07,28,13,13,15.80
2013,07,28,13,14,15.70
2013,07,28,13,15,15.70
2013,07,28,13,16,15.70
2013,07,28,13,17,15.70
2013,07,28,13,18,15.60
2013,07,28,13,19,15.60
2013,07,28,13,20,15.60
2013,07,28,13,21,15.70
2013,07,28,13,22,15.80
2013,07,28,13,23,15.90
2013,07,28,13,24,16.10
2013,07,28,13,25,16.10
2013,07,28,13,26,16.10
2013,07,28,13,27,16.20
2013,07,28,13,28,16.30
2013,07,28,13,29,16.40
2013,07,28,13,30,16.40
2013,07,28,13,31,16.40
2013,07,28,13,32,16.40
2013,07,28,13,33,16.30
2013,07,28,13,34,16.30
2013,07,28,13,35,16.30
2013,07,28,13,36,16.30
2013,07,28,13,37,16.40
2013,07,28,13,38,16.40
2013,07,28,13,39,16.30
2013,07,28,13,40,16.20
2013,07,28,13,41,16.10
2013,07,28,13,42,16.10
2013,07,28,13,43,16.10
2013,07,28,13,44,16.10
2013,07,28,13,45,16.20
2013,07,28,13,46,16.30
2013,07,28,13,47,16.40
2013,07,28,13,48,16.50
2013,07,28,13,49,16.50
2013,07,28,13,50,16.60
2013,07,28,13,51,16.50
2013,07,28,13,52,16.40
2013,07,28,13,53,16.40
2013,07,28,13,54,16.40
2013,07,28,13,55,16.50
2013,07,28,13,56,16.60
2013,07,28,13,57,16.60
2013,07,28,13,58,16.60
2013,07,28,13,59,16.50
2013,07,28,14,00,16.40
2013,07,28,14,01,16.40
2013,07,28,14,02,16.40
2013,07,28,14,03,16.30
2013,07,28,14,04,16.30
2013,07,28,14,05,16.30
2013,07,28,14,06,16.20
2013,07,28,14,07,16.20
2013,07,28,14,08,16.20
2013,07,28,14,09,16.30
2013,07,28,14,10,16.30
2013,07,28,14,11,16.40
2013,07,28,14,12,16.50
2013,07,28,14,13,16.60
2013,07,28,14,14,16.70
2013,07,28,14,15,16.70
2013,07,28,14,16,16.70
2013,07,28,14,17,16.70
2013,07,28,14,18,16.80
2013,07,28,14,19,16.80
2013,07,28,14,20,16.80
2013,07,28,14,21,16.70
2013,07,28,14,22,16.70
2013,07,28,14,23,16.70
2013,07,28,14,24,16.70
2013,07,28,14,25,16.70
2013,07,28,14,26,16.70
2013,07,28,14,27,16.80
2013,07,28,14,28,16.90
2013,07,28,14,29,17.00
2013,07,28,14,30,17.00
2013,07,28,14,31,17.10
2013,07,28,14,32,17.20
2013,07,28,14,33,17.20
2013,07,28,14,34,17.20
2013,07,28,14,35,17.30
2013,07,28,14,36,17.30
2013,07,28,14,37,17.30
2013,07,28,14,38,17.30
2013,07,28,14,39,17.30
2013,07,28,14,40,17.40
2013,07,28,14,41,17.40
2013,07,28,14,42,17.50
2013,07,28,14,43,17.60
2013,07,28,14,44,17.70
2013,07,28,14,45,17.80
2013,07,28,14,46,17.90
2013,07,28,14,47,18.10
2013,07,28,14,48,18.10
2013,07,28,14,49,18.00
2013,07,28,14,50,17.90
2013,07,28,14,51,17.90
2013,07,28,14,52,17.90
2013,07,28,14,53,17.90
2013,07,28,14,54,17.90
2013,07,28,14,55,17.80
2013,07,28,14,56,17.80
2013,07,28,14,57,17.80
2013,07,28,14,58,17.90
2013,07,28,14,59,18.10
2013,07,28,15,00,18.10
2013,07,28,15,01,18.20
2013,07,28,15,02,18.20
2013,07,28,15,03,18.20
2013,07,28,15,04,18.10
2013,07,28,15,05,18.00
2013,07,28,15,06,17.90
2013,07,28,15,07,17.90
2013,07,28,15,08,17.90
2013,07,28,15,09,17.90
2013,07,28,15,10,17.90
2013,07,28,15,11,17.90
2013,07,28,15,12,17.90
2013,07,28,15,13,17.90
2013,07,28,15,14,18.00
2013,07,28,15,15,18.10
2013,07,28,15,16,18.20
2013,07,28,15,17,18.20
2013,07,28,15,18,18.40
2013,07,28,15,19,18.40
2013,07,28,15,20,18.40
2013,07,28,15,21,18.40
2013,07,28,15,22,18.30
2013,07,28,15,23,18.20
2013,07,28,15,24,18.20
2013,07,28,15,25,18.10
2013,07,28,15,26,18.10
2013,07,28,15,27,18.20
2013,07,28,15,28,18.20
2013,07,28,15,29,18.40
2013,07,28,15,30,18.50
2013,07,28,15,31,18.60
2013,07,28,15,32,18.80
2013,07,28,15,33,18.90
2013,07,28,15,34,18.80
2013,07,28,15,35,18.60
2013,07,28,15,36,18.50
2013,07,28,15,37,18.40
2013,07,28,15,38,18.40
2013,07,28,15,39,18.40
2013,07,28,15,40,18.50
2013,07,28,15,41,18.50
2013,07,28,15,42,18.60
2013,07,28,15,43,18.60
2013,07,28,15,44,18.70
2013,07,28,15,45,18.70
2013,07,28,15,46,18.80
2013,07,28,15,47,18.80
2013,07,28,15,48,18.80
2013,07,28,15,49,18.80
2013,07,28,15,50,18.80
2013,07,28,15,51,18.80
2013,07,28,15,52,18.90
2013,07,28,15,53,19.10
2013,07,28,15,54,19.20
2013,07,28,15,55,19.20
2013,07,28,15,56,19.30
2013,07,28,15,57,19.40
2013,07,28,15,58,19.50
2013,07,28,15,59,19.50
2013,07,28,16,00,19.50
2013,07,28,16,01,19.50
2013,07,28,16,02,19.60
2013,07,28,16,03,19.50
2013,07,28,16,04,19.50
2013,07,28,16,05,19.60
2013,07,28,16,06,19.70
2013,07,28,16,07,19.70
2013,07,28,16,08,19.80
2013,07,28,16,09,19.80
2013,07,28,16,10,19.90
2013,07,28,16,11,19.90
2013,07,28,16,12,19.90
2013,07,28,16,13,19.80
2013,07,28,16,14,19.70
2013,07,28,16,15,19.80
2013,07,28,16,16,19.80
2013,07,28,16,17,19.70
2013,07,28,16,18,19.60
2013,07,28,16,19,19.50
2013,07,28,16,20,19.60
2013,07,28,16,21,19.70
2013,07,28,16,22,19.80
2013,07,28,16,23,19.80
2013,07,28,16,24,19.70
2013,07,28,16,25,19.60
2013,07,28,16,26,19.50
2013,07,28,16,27,19.60
2013,07,28,16,28,19.60
2013,07,28,16,29,19.70
2013,07,28,16,30,19.70
2013,07,28,16,31,19.60
2013,07,28,16,32,19.70
2013,07,28,16,33,19.60
2013,07,28,16,34,19.60
2013,07,28,16,35,19.60
2013,07,28,16,36,19.60
2013,07,28,16,37,19.60
2013,07,28,16,38,19.60
2013,07,28,16,39,19.60
2013,07,28,16,40,19.60
2013,07,28,16,41,19.50
2013,07,28,16,42,19.60
2013,07,28,16,43,19.60
2013,07,28,16,44,19.70
2013,07,28,16,45,19.80
2013,07,28,16,46,19.90
2013,07,28,16,47,20.00
2013,07,28,16,48,20.10
2013,07,28,16,49,20.00
2013,07,28,16,50,19.90
2013,07,28,16,51,19.90
2013,07,28,16,52,19.90
2013,07,28,16,53,19.90
2013,07,28,16,54,19.90
2013,07,28,16,55,19.90
2013,07,28,16,56,19.90
2013,07,28,16,57,19.70
2013,07,28,16,58,19.60
2013,07,28,16,59,19.50
2013,07,28,17,00,19.40
2013,07,28,17,01,19.30
2013,07,28,17,02,19.20
2013,07,28,17,03,19.20
2013,07,28,17,04,19.10
2013,07,28,17,05,19.20
2013,07,28,17,06,19.20
2013,07,28,17,07,19.30
2013,07,28,17,08,19.40
2013,07,28,17,09,19.60
2013,07,28,17,10,19.70
2013,07,28,17,11,19.90
2013,07,28,17,12,19.90
2013,07,28,17,13,19.90
2013,07,28,17,14,19.80
2013,07,28,17,15,19.60
2013,07,28,17,16,19.50
2013,07,28,17,17,19.30
2013,07,28,17,18,19.20
2013,07,28,17,19,19.10